FW8091 Weather Reports


time (UTC)temp
C
wind
direction
speed
KPH
gust
KPH
rain 1hr
cm
rain 24hr
cm
rain mn
cm
humidity
%
barometer
mb
20260510210013 19 316 0.0 6.4 0.00 0.00 0.00 54 1015.3
20260510204515 19 238 6.4 16.1 0.00 0.00 0.00 54 1015.1
20260510203010 19 236 11.3 17.7 0.00 0.00 0.00 53 1015.0
20260510201510 19 212 11.3 16.1 0.00 0.00 0.00 53 1014.8
20260510200010 20 202 4.8 12.9 0.00 0.00 0.00 51 1014.4
20260510194508 20 202 6.4 19.3 0.00 0.00 0.00 49 1014.3
20260510193007 20 208 9.7 16.1 0.00 0.00 0.00 49 1014.3
20260510191507 20 263 6.4 19.3 0.00 0.00 0.00 48 1014.3
20260510190006 20 204 12.9 25.7 0.00 0.00 0.00 47 1014.1
20260510184504 20 205 11.3 22.5 0.00 0.00 0.00 47 1014.2
20260510183004 21 201 12.9 33.8 0.00 0.00 0.00 45 1014.2
20260510181504 21 216 16.1 33.8 0.00 0.00 0.00 44 1014.0
20260510180003 21 216 16.1 30.6 0.00 0.00 0.00 44 1013.9
20260510174600 21 193 20.9 40.2 0.00 0.00 0.00 43 1013.8
20260510173100 21 199 24.1 38.6 0.00 0.00 0.00 41 1013.8
20260510171604 22 228 27.4 41.8 0.00 0.00 0.00 39 1014.0
20260510170116 22 236 22.5 35.4 0.00 0.00 0.00 38 1013.9
20260510164601 22 213 19.3 32.2 0.00 0.00 0.00 38 1014.0
20260510163056 22 200 19.3 48.3 0.00 0.00 0.00 38 1013.9
20260510161555 22 206 29.0 40.2 0.00 0.00 0.00 38 1014.0
20260510160100 23 198 24.1 45.1 0.00 0.00 0.00 37 1013.9
20260510154537 23 214 14.5 38.6 0.00 0.00 0.00 38 1014.0
20260510153033 22 220 22.5 35.4 0.00 0.00 0.00 39 1014.1
20260510151531 23 209 19.3 46.7 0.00 0.00 0.00 37 1014.4
20260510150017 23 211 25.7 40.2 0.00 0.00 0.00 37 1014.5
20260510144522 23 205 25.7 40.2 0.00 0.00 0.00 36 1014.5
20260510143016 23 232 22.5 41.8 0.00 0.00 0.00 36 1014.7
20260510141514 23 174 24.1 38.6 0.00 0.00 0.00 37 1014.8
20260510140045 23 186 29.0 40.2 0.00 0.00 0.00 36 1014.9
20260510134542 23 216 20.9 48.3 0.00 0.00 0.00 38 1015.1
20260510133039 23 169 24.1 45.1 0.00 0.00 0.00 39 1015.2
20260510131537 23 187 20.9 37.0 0.00 0.00 0.00 39 1015.3
20260510130036 23 159 22.5 43.5 0.00 0.00 0.00 39 1015.5
20260510124555 23 207 25.7 40.2 0.00 0.00 0.00 40 1015.7
20260510123029 22 223 20.9 40.2 0.00 0.00 0.00 43 1016.0
20260510121527 22 226 24.1 38.6 0.00 0.00 0.00 45 1016.1
20260510120031 22 213 24.1 43.5 0.00 0.00 0.00 47 1016.2
20260510114520 20 144 19.3 27.4 0.00 0.03 0.00 57 1016.4
20260510113056 20 119 12.9 19.3 0.00 0.03 0.00 60 1016.6
20260510111602 19 156 12.9 20.9 0.00 0.03 0.00 62 1017.0
20260510110040 18 135 14.5 24.1 0.00 0.03 0.00 62 1017.1
20260510104551 18 152 16.1 24.1 0.00 0.08 0.00 61 1017.4
20260510103041 18 141 16.1 24.1 0.00 0.08 0.00 60 1017.4
20260510101539 18 153 9.7 20.9 0.00 0.08 0.00 61 1017.3
20260510100035 18 135 12.9 19.3 0.00 0.08 0.00 61 1017.3
20260510094534 18 108 9.7 17.7 0.00 0.51 0.00 60 1017.1
20260510093035 18 94 11.3 16.1 0.00 0.51 0.00 60 1017.3
20260510091549 18 97 11.3 16.1 0.00 0.51 0.00 59 1017.3
20260510090029 18 87 9.7 16.1 0.00 0.51 0.00 60 1017.3
20260510084529 18 95 8.0 14.5 0.00 0.79 0.00 59 1017.4
20260510083027 18 96 6.4 9.7 0.00 0.79 0.00 59 1017.3
20260510081536 18 104 8.0 11.3 0.00 0.79 0.00 60 1017.4
20260510080024 17 93 8.0 12.9 0.00 0.79 0.00 60 1017.6
20260510074522 18 70 3.2 8.0 0.00 0.89 0.00 62 1017.5
20260510073027 17 45 3.2 6.4 0.00 0.89 0.00 62 1017.7
20260510071518 17 33 0.0 4.8 0.00 0.89 0.00 65 1017.6
20260510070016 16 39 3.2 9.7 0.00 0.89 0.00 65 1017.4
20260510064536 16 42 1.6 6.4 0.00 1.04 0.00 66 1017.4
20260510063014 15 350 3.2 6.4 0.00 1.04 0.00 66 1017.2
20260510061506 15 345 4.8 6.4 0.00 1.04 0.00 66 1017.2
20260510060039 14 323 0.0 0.0 0.00 1.04 0.00 67 1017.1
20260510054533 14 322 0.0 0.0 0.00 1.24 0.00 67 1017.0
20260510053030 14 322 1.6 4.8 0.00 1.24 0.00 67 1016.9
20260510051528 14 323 0.0 1.6 0.00 1.24 0.00 67 1016.8
20260510050027 14 322 0.0 3.2 0.00 1.24 0.00 67 1016.7
20260510044532 14 323 0.0 0.0 0.00 1.24 0.00 66 1016.7
20260510043024 14 322 1.6 6.4 0.00 1.24 0.00 66 1016.6
20260510041523 14 323 4.8 6.4 0.00 1.24 0.00 66 1016.4
20260510040023 14 323 3.2 8.0 0.00 1.24 0.00 66 1016.4
20260510034523 14 359 3.2 6.4 0.00 1.24 0.00 65 1016.5
20260510033056 14 326 4.8 6.4 0.00 1.24 0.00 65 1016.6
20260510031604 15 303 3.2 4.8 0.00 1.24 0.00 65 1016.4
20260510030057 15 303 0.0 1.6 0.00 1.24 0.00 65 1016.4
20260510024551 15 303 1.6 4.8 0.00 1.24 0.00 65 1016.4
20260510023049 15 303 3.2 6.4 0.00 1.24 0.00 65 1016.4
20260510021548 15 303 1.6 4.8 0.00 1.24 0.00 65 1016.3
20260510020044 15 303 3.2 4.8 0.00 1.24 0.00 66 1016.2
20260510014543 15 304 4.8 6.4 0.00 1.24 0.00 66 1016.2
20260510013050 15 304 3.2 4.8 0.00 1.24 0.00 65 1016.2
20260510011545 14 333 3.2 4.8 0.00 1.24 0.00 65 1016.2
20260510010041 14 334 1.6 6.4 0.00 1.24 0.00 65 1016.3
20260510004535 15 327 4.8 6.4 0.00 1.24 0.00 65 1016.4
20260510003044 15 328 1.6 4.8 0.00 1.24 0.00 65 1016.4
20260510001532 15 328 4.8 6.4 0.00 1.24 0.00 65 1016.7
20260510000030 15 316 3.2 6.4 0.00 1.24 0.00 64 1016.8
20260509234536 15 310 1.6 4.8 0.00 1.24 1.24 64 1016.8
20260509233038 16 310 4.8 8.0 0.00 1.24 1.24 64 1016.8
20260509231528 16 305 4.8 6.4 0.00 1.24 1.24 63 1016.9
20260509230025 16 304 4.8 6.4 0.00 1.24 1.24 63 1017.0
20260509224525 17 213 1.6 6.4 0.00 1.24 1.24 63 1017.0
20260509223023 17 216 3.2 9.7 0.00 1.24 1.24 63 1017.0
20260509221521 17 201 4.8 9.7 0.00 1.24 1.24 62 1017.2
20260509220025 17 234 4.8 9.7 0.00 1.24 1.24 62 1017.2
20260509214517 17 231 4.8 12.9 0.00 1.24 1.24 62 1017.1
20260509213017 17 193 3.2 6.4 0.00 1.24 1.24 61 1017.1
20260509211517 17 206 1.6 4.8 0.00 1.24 1.24 61 1017.1